[[{"header":{"parameterUnit":"m.s-1","parameterCategory":1,"la1":30.2991,"la2":30.254,"lo1":-89.0895,"lo2":-89.0444,"dy":0.0017,"dx":0.0017,"nx":28,"ny":28,"refTime":"2026-03-03T03:00:00:Z","depth":0,"parameterNumber":2,"parameterNumberName":"U-component_of_WINDS"},"data":[0,0,0,0,0,0,0,0,0,0,0,0,0,0,0,0,0,0,0,0,0,0,0,0,0,0,0,0,0,0,0,0,0,0,0,0,0,0,0,0,0,0,0,0,0,0,0,0,0,0,0,0,0,0,0,0,0,0,-2.7062,-2.7062,0,-2.7024,-2.7024,-2.7023,-2.6951,-2.6949,-2.6948,-2.6946,-2.6909,-2.6909,-2.691,0,0,0,0,0,0,0,0,0,0,0,0,0,-2.7074,-2.7074,-2.7062,-2.7062,-2.7061,-2.7024,-2.7024,-2.7023,-2.6951,-2.6949,-2.6947,-2.6946,-2.6909,-2.6909,-2.691,0,0,0,0,0,0,0,0,0,0,0,0,0,-2.7056,-2.7074,-2.7062,-2.7021,-2.7016,-2.7024,-2.7024,-2.7023,-2.6951,-2.6949,-2.6947,-2.6945,-2.6909,-2.6909,-2.691,-2.6955,0,0,-2.6911,-2.6911,0,0,0,0,0,0,0,0,-2.7057,-2.7056,-2.7027,-2.7023,-2.7019,-2.699,-2.7014,-2.7,-2.6952,-2.6976,-2.6946,-2.6944,-2.6938,-2.6936,-2.6933,-2.6954,-2.6952,-2.6911,-2.6912,-2.6912,-2.6912,0,0,0,0,0,0,0,-2.7058,-2.7057,-2.7047,-2.7027,-2.7022,-2.7005,-2.7,-2.7011,-2.6969,-2.6974,-2.6968,-2.6965,-2.6935,-2.6933,-2.6932,-2.6951,-2.6911,-2.6912,-2.6912,-2.6912,-2.7009,-2.7011,0,0,0,0,0,0,-2.7065,-2.7058,-2.7048,-2.7046,-2.7033,-2.7006,-2.7001,-2.7001,-2.6969,-2.6962,-2.6967,-2.6962,-2.6933,-2.6931,-2.693,-2.6982,-2.6912,-2.6912,-2.6912,-2.7007,-2.701,-2.7012,0,0,0,0,0,0,-2.7066,-2.7065,-2.705,-2.7051,-2.7047,-2.7008,-2.701,-2.7002,-2.6999,-2.6964,-2.6956,-2.6972,-2.6931,-2.693,-2.695,-2.698,-2.6912,-2.6913,-2.7004,-2.7008,-2.7011,-2.7087,0,0,0,0,0,0,-2.7067,-2.7066,-2.7082,-2.7052,-2.7048,-2.7069,-2.7011,-2.7003,-2.7,-2.6993,-2.6967,-2.696,-2.693,-2.695,-2.695,-2.6979,-2.6913,-2.7001,-2.7006,-2.701,-2.7081,-2.7092,-2.7102,0,0,0,0,0,-2.7067,-2.7105,-2.7083,-2.7082,-2.7067,-2.7071,-2.7069,-2.7033,-2.7003,-2.702,-2.6997,-2.6961,-2.6977,-2.6952,-2.6953,-2.6982,-2.6999,-2.7005,-2.7009,-2.7077,-2.709,-2.7101,0,0,0,0,0,0,-2.7139,-2.71,-2.7075,-2.7104,-2.7092,-2.7059,-2.7078,-2.7048,-2.7044,-2.7037,-2.6993,-2.6988,-2.7014,-2.7,-2.6974,-2.7026,-2.6983,-2.6988,-2.7033,-2.7046,-2.7056,-2.7058,-2.6914,0,0,0,0,0,-2.7159,-2.7165,-2.713,-2.7159,-2.7154,-2.7118,-2.7118,-2.7091,-2.7077,-2.7071,-2.705,-2.7038,-2.704,-2.7042,-2.7042,-2.7079,-2.7073,-2.71,-2.711,-2.7119,-2.7124,-2.7144,-2.7156,-2.7029,-2.7029,-2.7029,0,0,-2.7198,-2.7178,-2.7184,-2.7173,-2.716,-2.7169,-2.7113,-2.7124,-2.713,-2.7073,-2.7091,-2.7075,-2.7059,-2.7088,-2.71,-2.7077,-2.7158,-2.7125,-2.7132,-2.7133,-2.715,-2.7163,-2.7173,-2.7033,-2.7032,-2.7031,0,0,-2.7275,-2.726,-2.7282,-2.7271,-2.7253,-2.7228,-2.7234,-2.7207,-2.7194,-2.7211,-2.7169,-2.7176,-2.7181,-2.7171,-2.7167,-2.7243,-2.721,-2.7244,-2.7297,-2.7317,-2.7327,-2.7336,-2.7364,-2.7374,-2.725,-2.725,-2.725,0,-2.7327,-2.7337,-2.7298,-2.7312,-2.7309,-2.7258,-2.7281,-2.7272,-2.7255,-2.7254,-2.723,-2.7235,-2.722,-2.7248,-2.7266,-2.7264,-2.727,-2.7247,-2.7329,-2.7337,-2.7345,-2.7371,-2.7381,-2.7254,-2.7254,-2.7253,-2.7253,0,-2.7402,-2.741,-2.7431,-2.7415,-2.7415,-2.7433,-2.7398,-2.7403,-2.7377,-2.7356,-2.7375,-2.7356,-2.7352,-2.7357,-2.7331,-2.7381,-2.7368,-2.7337,-2.7292,-2.7362,-2.7385,-2.7395,-2.726,-2.7259,-2.7257,-2.7256,0,0,-2.752,-2.7485,-2.7494,-2.7487,-2.7464,-2.747,-2.7487,-2.7483,-2.7488,-2.7479,-2.7493,-2.7499,-2.7471,-2.7466,-2.744,-2.7457,-2.752,-2.7424,-2.7423,-2.7443,-2.7575,-2.7598,-2.761,-2.7499,-2.75,-2.7502,-2.7576,0,-2.7592,-2.7619,-2.7585,-2.762,-2.7627,-2.758,-2.7596,-2.7584,-2.7566,-2.757,-2.755,-2.7555,-2.7517,-2.7514,-2.753,-2.7509,-2.7546,-2.7503,-2.7512,-2.7513,-2.7517,-2.7622,-2.7647,-2.7718,-2.7585,-2.7587,-2.7588,0,-2.7678,-2.7673,-2.7709,-2.7685,-2.7687,-2.7702,-2.7696,-2.7701,-2.7688,-2.7673,-2.7669,-2.7638,-2.7655,-2.7613,-2.7635,-2.7607,-2.7609,-2.76,-2.7602,-2.7601,-2.7554,-2.7625,-2.7739,-2.775,-2.7602,-2.7601,-2.76,0,-2.7762,-2.7765,-2.7786,-2.7782,-2.7755,-2.7767,-2.7756,-2.774,-2.7741,-2.7737,-2.7737,-2.7735,-2.7734,-2.7734,-2.7704,-2.7675,-2.7731,-2.7686,-2.772,-2.7721,-2.7733,-2.7732,-2.785,-2.7735,-2.7735,-2.7734,-2.7734,0,-2.7845,-2.7868,-2.7824,-2.7837,-2.7863,-2.7825,-2.7852,-2.7837,-2.7824,-2.7834,-2.7794,-2.7805,-2.7764,-2.7771,-2.7748,-2.7771,-2.7771,-2.776,-2.7754,-2.7763,-2.7765,-2.7764,-2.7758,-2.7737,-2.7737,-2.7736,-2.7736,0,-2.7942,-2.7913,-2.7934,-2.7907,-2.7902,-2.7922,-2.7899,-2.7911,-2.7891,-2.7905,-2.7906,-2.7875,-2.7881,-2.7851,-2.7852,-2.7837,-2.7872,-2.7857,-2.7876,-2.7872,-2.7908,-2.7905,-2.8028,-2.8043,-2.7919,-2.792,-2.7921,0,-2.7997,-2.8014,-2.799,-2.7994,-2.7986,-2.7993,-2.7993,-2.7958,-2.796,-2.7948,-2.7962,-2.7965,-2.7965,-2.7978,-2.7955,-2.7957,-2.7941,-2.7985,-2.7941,-2.7951,-2.7943,-2.7942,-2.7944,-2.7994,-2.7995,-2.7996,-2.7997,0,-2.8097,-2.8082,-2.8084,-2.8082,-2.8084,-2.8081,-2.8075,-2.8081,-2.8043,-2.8048,-2.8054,-2.8055,-2.8056,-2.806,-2.8057,-2.8047,-2.8017,-2.8012,-2.802,-2.803,-2.804,-2.8036,-2.7901,-2.8009,-2.8007,-2.8007,-2.8006,-2.8006,-2.8174,-2.8188,-2.8174,-2.8178,-2.817,-2.8166,-2.8177,-2.8158,-2.8163,-2.8161,-2.814,-2.8151,-2.8139,-2.8132,-2.8125,-2.8134,-2.8113,-2.8125,-2.8128,-2.8131,-2.8138,-2.804,-2.8133,-2.8133,-2.8132,-2.8132,-2.8132,0,-2.8273,-2.8262,-2.8266,-2.826,-2.8264,-2.8235,-2.8228,-2.8233,-2.8243,-2.8234,-2.8236,-2.8244,-2.8248,-2.8227,-2.8229,-2.824,-2.8226,-2.8242,-2.824,-2.8239,-2.8155,-2.8148,-2.8253,-2.8253,-2.8253,-2.8253,-2.8253,-2.8253,-2.8324,-2.8346,-2.8331,-2.8349,-2.8338,-2.8348,-2.8346,-2.8343,-2.8336,-2.8347,-2.835,-2.8337,-2.8324,-2.8324,-2.8328,-2.8321,-2.8324,-2.8345,-2.8334,-2.8256,-2.8245,-2.8233,-2.8226,-2.8346,-2.8346,-2.8416,-2.8417,-2.8418]},{"header":{"parameterUnit":"m.s-1","parameterCategory":1,"la1":30.2991,"la2":30.254,"lo1":-89.0895,"lo2":-89.0444,"dy":0.0017,"dx":0.0017,"nx":28,"ny":28,"refTime":"2026-03-03T03:00:00:Z","depth":0,"parameterNumber":3,"parameterNumberName":"V-component_of_WINDS"},"data":[0,0,0,0,0,0,0,0,0,0,0,0,0,0,0,0,0,0,0,0,0,0,0,0,0,0,0,0,0,0,0,0,0,0,0,0,0,0,0,0,0,0,0,0,0,0,0,0,0,0,0,0,0,0,0,0,0,0,-0.064,-0.0639,0,-0.0599,-0.0599,-0.0599,-0.0503,-0.0501,-0.0499,-0.0497,-0.0459,-0.046,-0.0461,0,0,0,0,0,0,0,0,0,0,0,0,0,-0.0637,-0.0637,-0.064,-0.0639,-0.0639,-0.06,-0.0599,-0.0598,-0.0503,-0.0501,-0.0498,-0.0496,-0.0459,-0.046,-0.0461,0,0,0,0,0,0,0,0,0,0,0,0,0,-0.0622,-0.0637,-0.064,-0.0586,-0.0581,-0.06,-0.0599,-0.0598,-0.0504,-0.0501,-0.0498,-0.0495,-0.0458,-0.046,-0.0461,-0.0529,0,0,-0.0465,-0.0465,0,0,0,0,0,0,0,0,-0.0623,-0.0622,-0.0595,-0.059,-0.0584,-0.0553,-0.0584,-0.0575,-0.0504,-0.0533,-0.0497,-0.0493,-0.0493,-0.0491,-0.049,-0.0527,-0.0525,-0.0465,-0.0466,-0.0466,-0.0466,0,0,0,0,0,0,0,-0.0624,-0.0623,-0.0624,-0.0594,-0.0588,-0.0565,-0.056,-0.0582,-0.0531,-0.053,-0.0523,-0.052,-0.0489,-0.0489,-0.0489,-0.0525,-0.0465,-0.0466,-0.0467,-0.0467,-0.0616,-0.0619,0,0,0,0,0,0,-0.0632,-0.0624,-0.0625,-0.0623,-0.0596,-0.0568,-0.0562,-0.0566,-0.053,-0.0521,-0.0522,-0.0516,-0.0489,-0.0487,-0.0487,-0.0565,-0.0466,-0.0467,-0.0468,-0.0613,-0.0617,-0.062,0,0,0,0,0,0,-0.0632,-0.0633,-0.0627,-0.0622,-0.0619,-0.0571,-0.0577,-0.0567,-0.0567,-0.0524,-0.0514,-0.0531,-0.0486,-0.0485,-0.0519,-0.0562,-0.0468,-0.0469,-0.0609,-0.0614,-0.0618,-0.072,0,0,0,0,0,0,-0.0633,-0.0634,-0.0658,-0.0623,-0.062,-0.0659,-0.0579,-0.0568,-0.0569,-0.0559,-0.053,-0.0522,-0.0484,-0.0518,-0.052,-0.0562,-0.047,-0.0605,-0.0611,-0.0617,-0.0713,-0.0728,-0.0741,0,0,0,0,0,-0.0633,-0.0689,-0.066,-0.0661,-0.0649,-0.0662,-0.066,-0.0614,-0.0573,-0.0597,-0.057,-0.0523,-0.0557,-0.0522,-0.0524,-0.0567,-0.0602,-0.061,-0.0617,-0.0707,-0.0725,-0.0741,0,0,0,0,0,0,-0.0732,-0.0684,-0.0651,-0.0697,-0.0684,-0.0645,-0.0675,-0.0634,-0.0634,-0.0625,-0.0568,-0.0563,-0.0605,-0.0589,-0.0551,-0.0631,-0.0572,-0.058,-0.064,-0.0657,-0.0671,-0.0674,-0.0471,0,0,0,0,0,-0.0759,-0.0772,-0.0729,-0.0775,-0.077,-0.0724,-0.0727,-0.0693,-0.0677,-0.0672,-0.0647,-0.0635,-0.0642,-0.0649,-0.0653,-0.071,-0.0703,-0.0741,-0.0755,-0.0766,-0.0774,-0.0804,-0.082,-0.0644,-0.0644,-0.0644,0,0,-0.0816,-0.0791,-0.0803,-0.0794,-0.078,-0.0795,-0.072,-0.074,-0.0751,-0.0675,-0.0705,-0.0687,-0.0669,-0.0715,-0.0734,-0.0704,-0.0821,-0.0776,-0.0785,-0.0786,-0.0813,-0.083,-0.0845,-0.0649,-0.0648,-0.0647,0,0,-0.0927,-0.0909,-0.0944,-0.0932,-0.0911,-0.088,-0.0889,-0.0856,-0.0841,-0.087,-0.0813,-0.0827,-0.0841,-0.0831,-0.0828,-0.0936,-0.0893,-0.0939,-0.1012,-0.1042,-0.1056,-0.1068,-0.1107,-0.1121,-0.0946,-0.0947,-0.0947,0,-0.1,-0.102,-0.0968,-0.0991,-0.099,-0.0921,-0.0957,-0.0947,-0.093,-0.0931,-0.0896,-0.0913,-0.0896,-0.0939,-0.0966,-0.0965,-0.0974,-0.0942,-0.1058,-0.1069,-0.108,-0.1116,-0.1131,-0.0953,-0.0952,-0.0951,-0.0951,0,-0.1111,-0.1126,-0.1158,-0.1142,-0.1143,-0.1173,-0.1127,-0.1135,-0.1101,-0.1074,-0.1105,-0.1083,-0.1082,-0.1089,-0.1056,-0.1128,-0.111,-0.1067,-0.1007,-0.1103,-0.1137,-0.115,-0.0961,-0.0959,-0.0957,-0.0956,0,0,-0.1284,-0.1238,-0.1251,-0.1243,-0.1215,-0.1226,-0.1253,-0.1251,-0.126,-0.125,-0.1272,-0.1286,-0.1247,-0.1243,-0.1208,-0.1234,-0.1322,-0.1188,-0.1187,-0.1215,-0.1401,-0.1433,-0.145,-0.1293,-0.1295,-0.1297,-0.1402,0,-0.1388,-0.1431,-0.1385,-0.1438,-0.1452,-0.1386,-0.141,-0.1396,-0.1372,-0.1381,-0.1355,-0.1366,-0.1313,-0.131,-0.1333,-0.1306,-0.1359,-0.1298,-0.1314,-0.1315,-0.1321,-0.1467,-0.1502,-0.1602,-0.1415,-0.1417,-0.1419,0,-0.1516,-0.1511,-0.1565,-0.1534,-0.1538,-0.156,-0.1555,-0.1564,-0.1547,-0.1528,-0.1525,-0.1482,-0.1508,-0.1448,-0.1483,-0.1443,-0.1447,-0.1435,-0.1438,-0.1438,-0.1373,-0.1472,-0.1632,-0.1648,-0.1439,-0.1437,-0.1436,0,-0.1637,-0.1644,-0.1677,-0.1672,-0.1637,-0.1654,-0.164,-0.162,-0.1622,-0.1618,-0.1619,-0.1619,-0.1619,-0.162,-0.158,-0.154,-0.162,-0.1557,-0.1606,-0.1607,-0.1626,-0.1626,-0.179,-0.1628,-0.1628,-0.1627,-0.1627,0,-0.1759,-0.1794,-0.1731,-0.1752,-0.179,-0.1738,-0.1778,-0.1757,-0.174,-0.1756,-0.17,-0.1717,-0.1662,-0.1673,-0.1641,-0.1676,-0.1676,-0.1662,-0.1653,-0.1667,-0.1669,-0.1669,-0.1662,-0.1631,-0.163,-0.163,-0.1629,0,-0.19,-0.1859,-0.1891,-0.1855,-0.1847,-0.1877,-0.1846,-0.1864,-0.1836,-0.1858,-0.186,-0.1817,-0.1827,-0.1786,-0.179,-0.1768,-0.182,-0.1799,-0.1825,-0.1819,-0.187,-0.1866,-0.2041,-0.2061,-0.1886,-0.1888,-0.1889,0,-0.1981,-0.2007,-0.1973,-0.1979,-0.1968,-0.1979,-0.1981,-0.1931,-0.1935,-0.1918,-0.1939,-0.1944,-0.1946,-0.1966,-0.1935,-0.1938,-0.1918,-0.1979,-0.1918,-0.1931,-0.1919,-0.1919,-0.1921,-0.1992,-0.1994,-0.1996,-0.1997,0,-0.2128,-0.2107,-0.2111,-0.2108,-0.2111,-0.2107,-0.2099,-0.2108,-0.2054,-0.2062,-0.2071,-0.2073,-0.2076,-0.2083,-0.2079,-0.2066,-0.2024,-0.2016,-0.2028,-0.2043,-0.2057,-0.2051,-0.186,-0.2013,-0.2011,-0.201,-0.2009,-0.2008,-0.2242,-0.2262,-0.2242,-0.2248,-0.2237,-0.2231,-0.2246,-0.222,-0.2226,-0.2224,-0.2195,-0.221,-0.2194,-0.2185,-0.2176,-0.2188,-0.216,-0.2176,-0.218,-0.2185,-0.2195,-0.2055,-0.2187,-0.2187,-0.2186,-0.2186,-0.2185,0,-0.2387,-0.2371,-0.2377,-0.2367,-0.2373,-0.2331,-0.232,-0.2328,-0.2342,-0.2329,-0.2332,-0.2344,-0.235,-0.232,-0.2323,-0.2338,-0.2319,-0.2341,-0.2339,-0.2337,-0.2219,-0.2209,-0.2356,-0.2356,-0.2356,-0.2356,-0.2356,-0.2356,-0.2463,-0.2495,-0.2471,-0.2497,-0.2481,-0.2495,-0.2492,-0.2487,-0.2477,-0.2492,-0.2496,-0.2476,-0.2458,-0.2458,-0.2463,-0.2454,-0.2458,-0.2487,-0.2472,-0.2362,-0.2345,-0.233,-0.232,-0.2488,-0.2488,-0.2588,-0.2589,-0.259]}]]